SCP
0 0 0 0 0 0 0 0 0 0 0 -0 0 0 0 0 0 0 0 0 0 0 0 0 0 0 0 0 0 0 0 0 0 0 0 0 0 0 0 0 0 0 0 0
0 0 0 0 0 0 0 0 0 0 0 0 0 0 0 0 0 0 0 0 0 0 0 0 0 0 0 0 0 0 0 0 0 0 0 0 0 0 0 0 0 0 0 0
0 0 0 0 0 0 0 0 0 0 0 0 0 0 0 0 0 0 0 0 0 0 0 0 0 0 0 0 0 0 0 0 0 0 0 0 0 0 0 0 0 0 0 0
0 0 0 0 0 0 0 0 0 0 0 0 0 0 0 0 0 0 0 0 0 0 0 0 0 0 0 0 0 0 0 0 0 0 0 0 0 0 0 0 0 0 0 0
0 0 0 0 0 0 0 0 0 0 0 0 0 0 0 0 0 0 0 0 0 0 0 0 0 0 0 0 0 0 0 0 0 0 0 0 0 0 0 0 0 0 0 0
0 0 0 0 0 0 0 0 0 0 0 0 0 0 0 0 0 0 0 0 0 0 0 0 0 0 0 0 0 0 0 0 0 0 0 0 0 0 0 0 0 0 0 0
0 0 0 0 0 0 0 0 0 0 0 0 0 0 0 0 0 0 0 0 0 0 0 0 0 0 0 0 0 0 0 0 0 0 0 0 0 0 0 0 0 0 0 0
0 0 0 0 0 0 0 0 0 0 0 0 0 0 0 0 0 0 0 0 0 0 0 0 0 0 0 0 0 0 0 0 0 0 0 0 0 0 0 0 0 0 0 0
0 0 0 0 0 0 0 0 0 0 0 0 0 0 0 0 0 0 0 0 0 0 0 0 0 0 0 0 0 0 0 0 0 0 0 0 0 0 0 0 0 0 0 0
0 0 0 0 0 0 0 0 0 0 0 0 0 0 0 0 0 0 0 0 0 0 0 0 0 0 0 0 0 0 0 0 0 0 0 0 0 0 0 0 0 0 0 0
0 0 0 0 0 0 -0 0 0 0 0 0 0 0 0 0 0 0 0 0 0 0 0 0 0 0 0 0 0 0 0 0 0 0 0 0 0 0 0 0 0 0 0 0
0 0 0 0 -0 0 0 0 0 0 0 0 0 0 0 0 0 0 0 0 0 0 0 0 0 0 0 0 0 0 0 0 0 0 0 0 0 0 0 0 0 0 0 0
0 0 0 0 0 0 0 0 0 0 0 0 0 0 0 0 0 0 0 0 0 0 0 0 0 0 0 0 0 0 0 0 0 0 0 0 0 0 0 0 0 0 0 0
0 0 0 0 0 0 0 0 0 0 0 0 0 0 0 0 0 0 0 0 0 0 0 0 0 0 0 0 0 0 0 0 0 0 0 0 0 0 0 0 0 0 0 0
0 0 0 0 0 0 0 0 0 0 0 0 0 0 0 0 0 0 0 0 0 0 0 0 0 0 0 0 0 0 0 0 0 0 0 0 0 0 0 0 0 0 0 0
0 0 0 0 0 0 0 0 0 0 0 0 0 0 0 0 0 0 0 0 0 0 0 0 0 0 0 0 0 0 0 0 0 0 0 0 0 0 0 0 0 0 0 0
0 0 0 0 0 0 0 0 0 0 0 0 0 0 0 0 0 0 0 0 0 0 0 0 0 0 0 0 0 0 0 0 0 0 0 0 0 0 0 0 0 0 0 0
0 0 0 0 0 0 0 0 0 0 0 0 0 0 0 0 0 0 0 0 0 0 0 0 0 0 0 0 0 0 0 0 0 0 0 0 0 0 0 0 0 0 0 0
0 0 0 0 0 0 0 0 0 0 0 0 0 0 0 0 0 0 0 0 0 0 0 0 0 0 0 0 0 0 0 0 0 0 0 0 0 0 0 0 0 0 0 0
0 0 0 0 0 0 0 0 0 0 0 0 0 0 0 0 0 0 0 0 0 0 0 0 0 0 0 0 0 0 0 0 0 0 0 0 0 0 0 0 0 0 0 0
0 0 0 0 0 0 0 0 0 0 0 0 0 0 0 0 0 0 0 0 0 0 0 0 0 0 0 0 0 0 0 0 0 0 0 0 0 0 0 0 0 0 0 0
0 0 0 0 0 0 0 0 0 0 0 0 0 0 0 0 0 0 0 0 0 0 0 0 0 0 0 0 0 0 0 0 0 0 0 0 0 0 0 0 0 0 0 0
0 0 0 0 0 0 0 0 0 0 0 0 0 0 0 0 0 0 0 0 0 0 0 0 0 0 0 0 0 0 0 0 0 0 0 0 0 0 0 0 0 0 0 0
0 0 0 0 0 0 0 0 0 0 0 0 0 0 0 0 0 0 0 0 0 0 0 0 0 0 0 0 0 0 0 0 0 0 0 0 0 0 0 0 0 0 0 0
0 0 0 0 0 0 0 0 0 0 0 0 0 0 0 0 0 0 0 0 0 0 0 0 0 0 0 0 0 0 0 0 0 0 0 0 0 0 0 0 0 0 0 0
0 0 0 0 0 0 0 0 0 0 0 0 0 0 0 0 0 0 0 0 0 0 0 0 0 0 0 0 0 0 0 0 0 0 0 0 0 0 0 0 0 0 0 0
0 0 0 0 0 0 0 0 0 0 0 0 0 0 0 0 0 0 0 0 0 0 0 0 0 0 0 0 0 0 0 0 0 0 0 0 0 0 0 0 0 0 0 0
Wind_Speed_500mb
38 15 7 13 15 28 34 49 29 59 44 66 29 32 47 71 69 76 80 69 63 54 57 57 54 50 48 48 51 57 67 79 85 84 82 85 82 80 80 82 84 88 96 91
35 36 35 20 16 20 44 49 43 64 56 65 63 41 39 62 75 82 89 85 80 81 75 76 65 59 57 59 60 65 70 78 84 86 87 88 86 82 84 86 89 95 99 93
43 36 20 19 51 54 34 29 46 37 61 43 36 35 32 55 70 81 85 91 95 93 82 79 77 74 73 70 67 70 74 76 84 89 91 91 88 88 89 92 92 99 101 95
20 7 26 24 18 48 57 57 44 43 55 53 53 51 43 77 71 80 85 80 82 89 92 79 70 66 67 72 73 72 75 77 81 88 92 92 92 93 94 94 96 103 101 93
8 15 19 12 16 16 24 48 43 48 61 74 76 40 73 81 77 87 84 80 72 62 57 53 53 56 61 65 70 69 73 76 79 83 90 91 92 91 90 90 96 99 95 89
33 38 25 9 21 32 13 27 21 42 50 50 18 13 33 19 24 26 23 24 32 36 38 39 43 48 52 53 57 61 63 66 70 76 81 82 82 83 84 84 89 90 87 82
34 30 16 14 11 14 21 13 3 25 44 15 13 30 41 27 22 46 56 53 49 50 54 51 43 40 41 41 45 46 47 49 52 58 63 68 72 76 78 81 78 75 74 73
18 30 23 14 10 20 9 12 13 19 27 33 36 30 33 30 22 20 26 30 29 27 26 26 25 25 25 26 26 29 31 31 35 41 50 58 62 64 66 62 62 65 68 61
12 3 12 13 19 17 27 37 48 46 37 32 21 20 21 25 25 22 24 26 25 22 18 15 13 12 12 16 18 21 23 24 25 30 37 45 51 55 55 55 60 66 69 62
8 10 15 48 48 53 49 56 50 30 24 28 29 23 19 19 22 20 18 18 18 13 9 9 16 19 19 22 23 22 24 25 25 24 30 35 39 43 53 59 53 49 52 61
14 21 35 54 44 42 42 49 60 42 35 36 36 28 22 20 21 16 9 7 10 11 20 30 34 33 29 25 26 25 23 23 25 28 34 41 46 48 51 49 47 50 57 65
14 17 13 30 23 23 32 39 44 50 38 29 25 19 14 14 15 14 10 13 16 19 22 29 26 26 26 22 19 15 22 24 25 26 30 33 38 45 48 47 50 51 49 49
24 32 43 50 37 26 30 28 27 36 36 26 23 18 13 8 8 11 14 16 19 19 19 24 27 28 30 30 27 23 19 24 25 25 26 28 31 33 35 39 42 42 40 42
52 45 35 48 21 19 25 27 18 16 18 15 10 7 14 19 22 23 24 24 20 24 29 31 31 32 34 30 26 24 22 20 19 19 19 19 20 21 25 27 31 35 40 42
52 44 48 40 36 33 32 28 21 19 14 13 17 19 13 14 23 32 37 38 37 37 39 36 32 30 29 26 23 20 18 17 18 17 17 18 19 22 25 27 30 33 33 34
49 39 34 33 31 27 22 23 20 16 18 13 12 18 22 30 27 30 35 38 41 42 38 31 25 24 23 21 18 14 13 11 10 11 12 14 17 21 26 29 33 34 35 35
20 17 19 19 19 16 15 14 17 16 9 11 13 20 25 25 29 35 40 40 35 35 32 29 25 22 19 16 12 9 8 8 10 12 13 15 18 21 25 29 30 32 35 38
21 19 18 20 12 9 9 13 17 19 18 12 16 25 28 30 33 37 36 35 32 30 27 22 19 15 11 9 8 9 10 11 12 14 15 17 19 22 25 27 29 32 35 38
18 17 20 20 17 14 11 14 17 19 23 27 29 32 33 35 33 33 33 29 25 21 20 17 13 11 9 8 8 8 9 11 14 15 17 19 21 23 25 26 28 30 33 37
12 16 13 14 15 15 16 18 20 25 28 27 31 34 34 35 32 27 25 22 20 19 20 17 14 11 8 6 4 5 7 9 11 14 15 17 19 21 24 27 29 32 34 37
8 9 12 17 21 20 21 26 25 28 32 29 27 32 31 32 30 27 24 23 25 22 18 15 12 9 7 5 4 3 5 8 10 13 16 18 21 23 26 29 31 33 35 38
14 18 22 26 26 28 26 28 28 29 28 27 30 30 30 32 29 28 28 22 24 21 18 14 12 10 7 7 6 6 8 10 12 14 16 18 20 23 26 28 31 34 38 40
19 21 26 32 34 36 37 34 34 32 31 30 31 30 29 33 32 25 25 25 20 15 12 8 5 2 2 5 8 10 13 15 17 18 21 24 27 31 35 37 40 43 45 46
27 29 35 38 42 41 41 41 38 38 36 37 36 35 33 28 28 27 23 19 14 10 6 3 3 5 8 11 14 17 19 22 25 28 30 33 35 38 40 42 44 44 47 48
33 37 39 42 46 47 45 43 42 41 37 37 35 31 27 24 19 21 16 11 6 5 7 10 13 16 19 22 25 28 30 32 34 36 38 40 41 44 45 46 48 47 49 50
35 39 41 45 48 43 39 34 36 35 30 28 26 24 21 18 15 11 9 9 11 15 18 21 25 27 30 33 36 38 40 42 43 44 46 47 48 49 50 51 52 52 53 54
40 41 42 45 42 37 33 31 27 28 23 20 17 16 14 13 11 12 14 17 20 23 26 30 33 36 39 41 43 45 47 49 50 52 53 54 55 56 57 57 58 58 59 60
Wind_Direction_500mb
243 250 236 204 183 200 210 229 224 252 244 261 254 244 253 266 278 284 284 277 275 282 288 288 282 266 260 257 251 246 234 230 230 231 227 223 224 226 228 227 222 216 212 210
246 242 228 238 232 214 209 225 234 244 248 254 255 253 239 246 255 267 274 273 275 279 281 284 279 271 264 262 253 245 238 234 231 230 227 227 228 225 229 227 221 214 213 212
243 244 225 236 229 229 228 220 215 232 240 257 258 249 251 258 257 257 262 268 274 278 280 283 282 279 271 263 255 248 242 236 233 231 229 228 227 228 228 227 221 214 213 212
249 155 226 235 229 226 231 238 227 244 256 259 257 266 269 264 264 270 272 273 273 278 282 280 278 272 268 263 258 251 244 238 234 233 231 230 227 228 229 226 221 215 213 212
248 233 276 306 236 180 185 246 234 232 248 255 262 273 271 270 273 276 279 281 282 281 278 275 271 266 264 261 258 251 243 239 236 233 231 229 228 227 227 223 217 214 214 213
251 253 257 251 252 198 127 244 224 210 241 250 225 224 263 268 274 278 284 282 280 278 272 273 278 268 261 258 253 250 246 241 237 234 232 230 229 227 226 223 218 214 214 215
235 243 239 242 236 154 181 232 161 214 234 220 194 227 253 258 254 276 280 282 282 278 277 276 268 259 254 250 247 244 242 243 241 237 233 230 228 225 224 220 216 217 216 217
236 242 255 184 120 189 207 182 197 226 234 231 242 227 237 259 272 263 269 282 291 286 279 275 262 250 246 241 232 231 231 226 226 227 225 223 223 223 221 216 213 216 216 216
224 186 310 300 299 289 312 289 268 250 246 239 241 260 274 283 288 285 275 273 276 276 265 249 226 202 208 200 190 186 190 192 197 204 210 213 215 215 210 202 212 220 227 224
317 304 262 284 277 253 268 269 262 275 268 262 269 272 276 288 291 294 290 274 256 237 207 176 149 134 129 136 139 149 157 161 165 181 190 196 199 204 205 216 227 226 224 220
261 279 281 276 281 292 273 264 263 263 261 262 264 268 274 277 273 268 256 202 164 150 148 144 136 130 125 132 135 143 153 161 167 180 189 192 202 215 222 226 230 230 228 234
251 233 237 286 300 315 303 273 264 261 259 262 263 258 251 256 255 242 214 182 156 146 146 141 142 145 145 133 132 149 162 166 168 173 180 191 203 209 215 219 228 235 237 240
246 275 284 286 290 288 291 299 279 255 258 253 240 239 222 214 236 224 196 172 161 155 160 151 149 151 145 143 141 140 152 157 163 169 178 184 191 201 208 212 221 226 228 230
263 267 280 270 252 269 293 304 296 262 241 224 199 197 233 211 206 196 184 171 159 146 140 136 139 142 135 135 135 140 146 151 156 165 172 181 190 200 207 216 224 226 228 232
247 240 246 256 273 276 271 259 235 215 206 237 233 204 202 175 167 156 150 146 146 147 141 137 138 134 132 133 134 139 146 152 154 165 174 185 199 211 219 226 230 235 238 239
226 229 245 255 259 254 241 231 220 231 225 193 157 156 158 155 146 144 148 153 157 147 138 136 139 140 142 140 140 149 156 162 174 192 204 214 225 231 234 234 237 239 240 243
214 199 204 224 230 232 204 198 194 193 182 163 174 191 189 191 178 170 166 157 158 152 150 149 150 149 148 151 159 176 188 203 217 226 229 234 239 244 245 244 245 245 244 245
216 212 204 212 210 215 188 174 178 167 168 181 171 158 155 159 160 155 151 150 155 153 152 155 156 159 170 187 202 219 225 230 238 242 245 246 249 249 249 249 247 246 246 245
204 201 204 197 197 198 181 163 162 163 166 170 169 164 160 156 153 152 148 148 147 148 145 154 172 179 183 202 221 236 251 259 260 262 262 261 259 257 255 253 251 249 248 250
200 196 183 170 165 166 157 145 149 156 154 152 159 152 151 143 141 144 144 156 152 148 147 152 152 149 159 173 202 235 252 262 268 268 268 268 266 264 261 260 259 259 260 261
191 156 162 158 154 152 146 135 139 143 139 139 151 146 145 140 139 140 144 152 142 143 144 144 144 154 163 170 183 219 242 248 252 258 262 264 265 268 269 270 270 270 269 269
173 165 162 148 145 142 135 130 134 130 132 140 138 135 138 137 139 145 146 146 140 141 141 143 151 161 174 193 217 237 252 260 263 265 266 269 271 272 272 271 270 270 270 269
154 157 149 142 140 136 132 129 127 128 130 129 121 123 129 127 124 124 129 124 123 122 120 117 108 80 356 318 300 290 285 282 279 277 275 273 273 272 271 271 272 273 274 274
136 136 132 131 129 126 125 117 118 118 121 117 115 110 105 105 110 108 104 102 101 98 91 69 357 318 300 293 290 288 285 282 280 280 280 279 279 278 278 277 277 277 276 276
124 126 126 128 121 113 112 111 111 108 108 107 107 105 102 100 100 93 87 77 57 8 323 306 301 300 300 299 297 296 295 294 293 292 289 287 285 283 282 281 281 279 277 276
128 124 117 111 107 106 106 110 107 101 97 95 95 92 86 81 73 61 36 3 342 331 325 320 316 313 309 307 305 303 301 299 297 295 292 290 288 286 285 283 282 281 280 278
121 116 112 109 107 107 108 104 103 98 93 88 75 70 57 40 20 359 343 334 328 322 319 315 312 309 307 305 303 301 300 298 297 295 292 290 289 287 286 284 282 280 278 277
Wind_Speed_850mb
38 15 7 13 15 28 34 49 29 59 44 66 29 32 47 71 69 76 80 69 63 54 57 57 54 50 48 48 51 57 67 79 85 84 82 85 82 80 80 82 84 88 96 91
35 36 35 20 16 20 44 49 43 64 56 65 63 41 39 62 75 82 89 85 80 81 75 76 65 59 57 59 60 65 70 78 84 86 87 88 86 82 84 86 89 95 99 93
43 36 20 19 51 54 34 29 46 37 61 43 36 35 32 55 70 81 85 91 95 93 82 79 77 74 73 70 67 70 74 76 84 89 91 91 88 88 89 92 92 99 101 95
20 7 26 24 18 48 57 57 44 43 55 53 53 51 43 77 71 80 85 80 82 89 92 79 70 66 67 72 73 72 75 77 81 88 92 92 92 93 94 94 96 103 101 93
8 15 19 12 16 16 24 48 43 48 61 74 76 40 73 81 77 87 84 80 72 62 57 53 53 56 61 65 70 69 73 76 79 83 90 91 92 91 90 90 96 99 95 89
33 38 25 9 21 32 13 27 21 42 50 50 18 13 33 19 24 26 23 24 32 36 38 39 43 48 52 53 57 61 63 66 70 76 81 82 82 83 84 84 89 90 87 82
34 30 16 14 11 14 21 13 3 25 44 15 13 30 41 27 22 46 56 53 49 50 54 51 43 40 41 41 45 46 47 49 52 58 63 68 72 76 78 81 78 75 74 73
18 30 23 14 10 20 9 12 13 19 27 33 36 30 33 30 22 20 26 30 29 27 26 26 25 25 25 26 26 29 31 31 35 41 50 58 62 64 66 62 62 65 68 61
12 3 12 13 19 17 27 37 48 46 37 32 21 20 21 25 25 22 24 26 25 22 18 15 13 12 12 16 18 21 23 24 25 30 37 45 51 55 55 55 60 66 69 62
8 10 15 48 48 53 49 56 50 30 24 28 29 23 19 19 22 20 18 18 18 13 9 9 16 19 19 22 23 22 24 25 25 24 30 35 39 43 53 59 53 49 52 61
14 21 35 54 44 42 42 49 60 42 35 36 36 28 22 20 21 16 9 7 10 11 20 30 34 33 29 25 26 25 23 23 25 28 34 41 46 48 51 49 47 50 57 65
14 17 13 30 23 23 32 39 44 50 38 29 25 19 14 14 15 14 10 13 16 19 22 29 26 26 26 22 19 15 22 24 25 26 30 33 38 45 48 47 50 51 49 49
24 32 43 50 37 26 30 28 27 36 36 26 23 18 13 8 8 11 14 16 19 19 19 24 27 28 30 30 27 23 19 24 25 25 26 28 31 33 35 39 42 42 40 42
52 45 35 48 21 19 25 27 18 16 18 15 10 7 14 19 22 23 24 24 20 24 29 31 31 32 34 30 26 24 22 20 19 19 19 19 20 21 25 27 31 35 40 42
52 44 48 40 36 33 32 28 21 19 14 13 17 19 13 14 23 32 37 38 37 37 39 36 32 30 29 26 23 20 18 17 18 17 17 18 19 22 25 27 30 33 33 34
49 39 34 33 31 27 22 23 20 16 18 13 12 18 22 30 27 30 35 38 41 42 38 31 25 24 23 21 18 14 13 11 10 11 12 14 17 21 26 29 33 34 35 35
20 17 19 19 19 16 15 14 17 16 9 11 13 20 25 25 29 35 40 40 35 35 32 29 25 22 19 16 12 9 8 8 10 12 13 15 18 21 25 29 30 32 35 38
21 19 18 20 12 9 9 13 17 19 18 12 16 25 28 30 33 37 36 35 32 30 27 22 19 15 11 9 8 9 10 11 12 14 15 17 19 22 25 27 29 32 35 38
18 17 20 20 17 14 11 14 17 19 23 27 29 32 33 35 33 33 33 29 25 21 20 17 13 11 9 8 8 8 9 11 14 15 17 19 21 23 25 26 28 30 33 37
12 16 13 14 15 15 16 18 20 25 28 27 31 34 34 35 32 27 25 22 20 19 20 17 14 11 8 6 4 5 7 9 11 14 15 17 19 21 24 27 29 32 34 37
8 9 12 17 21 20 21 26 25 28 32 29 27 32 31 32 30 27 24 23 25 22 18 15 12 9 7 5 4 3 5 8 10 13 16 18 21 23 26 29 31 33 35 38
14 18 22 26 26 28 26 28 28 29 28 27 30 30 30 32 29 28 28 22 24 21 18 14 12 10 7 7 6 6 8 10 12 14 16 18 20 23 26 28 31 34 38 40
19 21 26 32 34 36 37 34 34 32 31 30 31 30 29 33 32 25 25 25 20 15 12 8 5 2 2 5 8 10 13 15 17 18 21 24 27 31 35 37 40 43 45 46
27 29 35 38 42 41 41 41 38 38 36 37 36 35 33 28 28 27 23 19 14 10 6 3 3 5 8 11 14 17 19 22 25 28 30 33 35 38 40 42 44 44 47 48
33 37 39 42 46 47 45 43 42 41 37 37 35 31 27 24 19 21 16 11 6 5 7 10 13 16 19 22 25 28 30 32 34 36 38 40 41 44 45 46 48 47 49 50
35 39 41 45 48 43 39 34 36 35 30 28 26 24 21 18 15 11 9 9 11 15 18 21 25 27 30 33 36 38 40 42 43 44 46 47 48 49 50 51 52 52 53 54
40 41 42 45 42 37 33 31 27 28 23 20 17 16 14 13 11 12 14 17 20 23 26 30 33 36 39 41 43 45 47 49 50 52 53 54 55 56 57 57 58 58 59 60
Wind_Direction_850mb
243 250 236 204 183 200 210 229 224 252 244 261 254 244 253 266 278 284 284 277 275 282 288 288 282 266 260 257 251 246 234 230 230 231 227 223 224 226 228 227 222 216 212 210
246 242 228 238 232 214 209 225 234 244 248 254 255 253 239 246 255 267 274 273 275 279 281 284 279 271 264 262 253 245 238 234 231 230 227 227 228 225 229 227 221 214 213 212
243 244 225 236 229 229 228 220 215 232 240 257 258 249 251 258 257 257 262 268 274 278 280 283 282 279 271 263 255 248 242 236 233 231 229 228 227 228 228 227 221 214 213 212
249 155 226 235 229 226 231 238 227 244 256 259 257 266 269 264 264 270 272 273 273 278 282 280 278 272 268 263 258 251 244 238 234 233 231 230 227 228 229 226 221 215 213 212
248 233 276 306 236 180 185 246 234 232 248 255 262 273 271 270 273 276 279 281 282 281 278 275 271 266 264 261 258 251 243 239 236 233 231 229 228 227 227 223 217 214 214 213
251 253 257 251 252 198 127 244 224 210 241 250 225 224 263 268 274 278 284 282 280 278 272 273 278 268 261 258 253 250 246 241 237 234 232 230 229 227 226 223 218 214 214 215
235 243 239 242 236 154 181 232 161 214 234 220 194 227 253 258 254 276 280 282 282 278 277 276 268 259 254 250 247 244 242 243 241 237 233 230 228 225 224 220 216 217 216 217
236 242 255 184 120 189 207 182 197 226 234 231 242 227 237 259 272 263 269 282 291 286 279 275 262 250 246 241 232 231 231 226 226 227 225 223 223 223 221 216 213 216 216 216
224 186 310 300 299 289 312 289 268 250 246 239 241 260 274 283 288 285 275 273 276 276 265 249 226 202 208 200 190 186 190 192 197 204 210 213 215 215 210 202 212 220 227 224
317 304 262 284 277 253 268 269 262 275 268 262 269 272 276 288 291 294 290 274 256 237 207 176 149 134 129 136 139 149 157 161 165 181 190 196 199 204 205 216 227 226 224 220
261 279 281 276 281 292 273 264 263 263 261 262 264 268 274 277 273 268 256 202 164 150 148 144 136 130 125 132 135 143 153 161 167 180 189 192 202 215 222 226 230 230 228 234
251 233 237 286 300 315 303 273 264 261 259 262 263 258 251 256 255 242 214 182 156 146 146 141 142 145 145 133 132 149 162 166 168 173 180 191 203 209 215 219 228 235 237 240
246 275 284 286 290 288 291 299 279 255 258 253 240 239 222 214 236 224 196 172 161 155 160 151 149 151 145 143 141 140 152 157 163 169 178 184 191 201 208 212 221 226 228 230
263 267 280 270 252 269 293 304 296 262 241 224 199 197 233 211 206 196 184 171 159 146 140 136 139 142 135 135 135 140 146 151 156 165 172 181 190 200 207 216 224 226 228 232
247 240 246 256 273 276 271 259 235 215 206 237 233 204 202 175 167 156 150 146 146 147 141 137 138 134 132 133 134 139 146 152 154 165 174 185 199 211 219 226 230 235 238 239
226 229 245 255 259 254 241 231 220 231 225 193 157 156 158 155 146 144 148 153 157 147 138 136 139 140 142 140 140 149 156 162 174 192 204 214 225 231 234 234 237 239 240 243
214 199 204 224 230 232 204 198 194 193 182 163 174 191 189 191 178 170 166 157 158 152 150 149 150 149 148 151 159 176 188 203 217 226 229 234 239 244 245 244 245 245 244 245
216 212 204 212 210 215 188 174 178 167 168 181 171 158 155 159 160 155 151 150 155 153 152 155 156 159 170 187 202 219 225 230 238 242 245 246 249 249 249 249 247 246 246 245
204 201 204 197 197 198 181 163 162 163 166 170 169 164 160 156 153 152 148 148 147 148 145 154 172 179 183 202 221 236 251 259 260 262 262 261 259 257 255 253 251 249 248 250
200 196 183 170 165 166 157 145 149 156 154 152 159 152 151 143 141 144 144 156 152 148 147 152 152 149 159 173 202 235 252 262 268 268 268 268 266 264 261 260 259 259 260 261
191 156 162 158 154 152 146 135 139 143 139 139 151 146 145 140 139 140 144 152 142 143 144 144 144 154 163 170 183 219 242 248 252 258 262 264 265 268 269 270 270 270 269 269
173 165 162 148 145 142 135 130 134 130 132 140 138 135 138 137 139 145 146 146 140 141 141 143 151 161 174 193 217 237 252 260 263 265 266 269 271 272 272 271 270 270 270 269
154 157 149 142 140 136 132 129 127 128 130 129 121 123 129 127 124 124 129 124 123 122 120 117 108 80 356 318 300 290 285 282 279 277 275 273 273 272 271 271 272 273 274 274
136 136 132 131 129 126 125 117 118 118 121 117 115 110 105 105 110 108 104 102 101 98 91 69 357 318 300 293 290 288 285 282 280 280 280 279 279 278 278 277 277 277 276 276
124 126 126 128 121 113 112 111 111 108 108 107 107 105 102 100 100 93 87 77 57 8 323 306 301 300 300 299 297 296 295 294 293 292 289 287 285 283 282 281 281 279 277 276
128 124 117 111 107 106 106 110 107 101 97 95 95 92 86 81 73 61 36 3 342 331 325 320 316 313 309 307 305 303 301 299 297 295 292 290 288 286 285 283 282 281 280 278
121 116 112 109 107 107 108 104 103 98 93 88 75 70 57 40 20 359 343 334 328 322 319 315 312 309 307 305 303 301 300 298 297 295 292 290 289 287 286 284 282 280 278 277